Back to catalog

FENGYUN 1C DEB

AliveSSO
NORAD 31536·DEBRIS·🇨🇳 China

Launched May 10, 1999 from Taiyuan Satellite Launch Center

Loading…

Next Passes (next 24 hours)

TLE

FreshSource: Space-Track

Epoch: Sep 13, 2026, 05:15 UTC

1 31536U 99025BYB 26256.21917571  .00007671  00000-0  95342-3 0  9994
2 31536  98.2202 165.6923 0279553  12.8655 347.9489 14.58901812  2480

Track FENGYUN 1C DEB in real time with AllMySat

Download on the App Store